Retour au catalogue

COSMOS 252 DEB *

ActifLEO
NORAD 18597·DEBRIS·🇷🇺 Russia

Lancé Nov 1, 1968 depuis Baikonur Cosmodrome

Loading…

Prochains Passages (prochaines 24 heures)

TLE

FraisSource: Space-Track

Époque: Sep 13, 2026, 11:40 UTC

1 18597U 68097EQ  26256.48648037  .00000538  00000-0  79833-3 0  9990
2 18597  62.2505  77.0209 0782308  69.1244 299.1664 12.75824830595377

Suivez COSMOS 252 DEB * en temps réel avec AllMySat

Download on the App Store